Regional Weather Roundup
Issued by NWS

Home | Current Version | Previous Version | Graphics & Text | Print | Product List | Glossary On
Versions: 1 2 3 4 5 6 7 8 9 10 11 12 13 14 15 16 17 18 19 20 21 22 23 24 25 26 27 28
000
ASUS45 KSLC 211410
RWRUT

UTAH REGIONAL WEATHER ROUNDUP
NATIONAL WEATHER SERVICE SALT LAKE CITY UT
800 AM MDT MON APR 21 2014

UTZ001>011-023>025-211500-

NORTHERN UTAH

CITY           SKY/WX    TMP DP  RH WIND       PRES   REMARKS
DUGWAY         MOSUNNY   45  23  42 SE3       30.22
HILL AFB       MOSUNNY   43  22  42 E22       30.21S
LOGAN          SUNNY     35  27  72 CALM      30.25S
OGDEN          SUNNY     46  23  40 S7        30.20S
PROVO AIRPORT  MOSUNNY   43  34  70 CALM      30.25R
SALT LAKE CITY MOSUNNY   47  29  49 SE5       30.21S
VERNAL         SUNNY     48  35  60 CALM      30.25R
WENDOVER       MOSUNNY   46  19  34 SW3       30.21R
HEBER CITY     SUNNY     36  27  69 CALM      30.29R
WEST JORDAN    SUNNY     46  28  49 S6        30.22S

$$

UTZ012>022-026-027-211500-

SOUTHERN UTAH

CITY           SKY/WX    TMP DP  RH WIND       PRES   REMARKS
BRYCE CANYON   PTSUNNY   39  32  76 CALM      30.33R
CEDAR CITY     MOSUNNY   43  32  65 S3        30.22R
MILFORD        SUNNY     44  25  47 S7        30.21R
MOAB/CYNLANDS  SUNNY     54  39  57 SE9       30.19R
PRICE          MOSUNNY   47  21  35 CALM      30.24R
ST GEORGE      SUNNY     59  30  33 SW3       30.13R

$$

REGIONAL REPORTS     COLORADO/ARIZONA

CITY           SKY/WX    TMP DP  RH WIND       PRES   REMARKS
CRAIG, CO      SUNNY     37  35  92 CALM      30.29S
GRAND JUNCTION SUNNY     50  39  66 SE10      30.24R
RIFLE          SUNNY     41  36  82 CALM      30.30R
MONTROSE       SUNNY     47  34  60 SE7       30.30R
CORTEZ         SUNNY     45  32  60 E6        30.27R
PAGE, AZ       MOSUNNY   60  34  37 SE5       30.18R
GRAND CANYON   SUNNY     40  32  73 NE3       30.29S
KINGMAN        SUNNY     61  33  35 CALM      30.13R
FLAGSTAFF      SUNNY     41  34  76 CALM      30.30R

$$

REGIONAL REPORTS    NEVADA/IDAHO/WYOMING

CITY           SKY/WX    TMP DP  RH WIND       PRES   REMARKS
LAS VEGAS, NV  MOSUNNY   71  32  23 S8        30.00R
ELY            CLOUDY    37  22  54 S9        30.24S WCI  30
ELKO           PTSUNNY   35  17  47 NE6       30.21S WCI  30
POCATELLO, ID  SUNNY     36  22  56 NE5       30.25R WCI  32
BURLEY         SUNNY     33  28  81 CALM      30.20S
EVANSTON, WY   MOSUNNY   37  19  48 SE5       30.29R WCI  33
ROCK SPRINGS   MOSUNNY   42  14  32 CALM      30.29R

$$



USA.gov is the U.S. government's official web portal to all federal, state and local government web resources and services.